Location: Bouillancy
(49.1149°N, 2.9308°E)
Time: 07:40:58
(UTC+00:00)

Cosmos 1092 Rocket - Pass Details

Date: 30 September 2020
Orbit: 955 x 995 km, 82.9° (Epoch: 29 October)

Event Time Altitude Azimuth Distance (km) Brightness Sun altitude
Rises 17:48:32 0° 355° (N) 3,656 7.1 -4.1°
Reaches altitude 10° 17:51:14 10° 3° (N) 2,710 6.3 -4.6°
Maximum altitude 17:57:01 40° 72° (ENE) 1,406 4.4 -5.5°
Drops below altitude 10° 18:02:49 10° 140° (SE) 2,718 5.9 -6.5°
Sets 18:05:30 0° 148° (SSE) 3,667 6.7 -6.9°
